COSMOS 886 DEB *, 9799

Orbit data source: Space-Track

COSMOS 886 DEB *, 9799 is space debris in LEO originally from a launch on Mon, 27 Dec 1976 UTC launched from the Tyuratam Missile And Space Complex (TTMTR). Debris objects in space refer to the collection of defunct objects orbiting the Earth. Examples of debris include non-operational satellites, rocket bodies, and fragments generated from explosions, collisions, or faulty payload assembly.

Loading next visibility...
Identifier
9799, 1976-126Z
Orbit
LEO
Country
Flag of CISCIS
Related business
Manufacturer
Unknown
Mission
Spacecraft
Bus & Motor
Unknown
Mass
Unknown
Launch date (UTC)
1976-12-27 (49 years ago)
Launch vehicle
Unknown
Launch site
Tyuratam Missile And Space Complex (TTMTR)
Object type
Payload
Rocket body
Debris
Shape & HBR
Unknown shape, 0.1 m
Radar Cross Section
Small (<0.1 m²)

Expand to show TLE details & history
Last TLE update: 10 hours ago

TLE from 10 hours ago
0 COSMOS 886 DEB *
1  9799U 76126Z   26130.06997106  .00000105  00000-0  84091-4 0  9998
2  9799  65.6062  54.3754 1010455 302.5949  48.1382 12.79709322644661
Epoch: 2026-05-10T01:40Z
TLE epoch observation values (Epoch: 2026-05-10T01:40:45.499Z)
Latitude
-0.00003°
Longitude
161.30747°
Altitude
872.276 km
Speed
7.64 km/s
True Right ascension
03h 37m 30s
True Declination
0° 00' 00"
Sunlit
Object was in daylight at epoch
Visualization orbit readout
Latitude
Unknown
Longitude
Unknown
Altitude
Unknown
Speed
Unknown
Apparent Right ascension
Unknown
Apparent Declination
Unknown
Sunlit
N/A
Visualization observer readout
Local Sidereal Time
19:43:43
Azimuth
Unknown
Elevation
Unknown
Doppler factor
Unknown
Orbital elements
Apogee altitude
2,121.237 km
Perigee altitude
561.222 km
Semi-major axis
7,719.367 km
Eccentricity
0.10105
Inclination
65.6062°
RAAN
54.3754°
Arg. of periapsis
302.5949°
True anomaly
57.50986°
Mean anomaly
48.1382°
Eccentric anomaly
52.74642°
Mean motion
3.20015 °/min
Orbital period
112.49 mins
BSTAR
0.000084091
Loading maneuver chart data...
Computing Atmospheric mass density...
Loading historical data...
Loading historical data...
Loading historical data...
Loading historical data...
Loading historical data...
Loading historical data...
Loading historical data...

Documentation

Showing up to 5 results
|